Location: Joplin, MO
(37.0842°N, 94.5133°W)
Time: 22:15:03
(UTC+02:00)

Courier 1B Rocket - Pass Details

Date: 31 March 2023
Orbit: 920 x 1202 km, 28.2° (Epoch: 05 June)

Event Time Altitude Azimuth Distance (km) Brightness Sun altitude
Rises 01:38:38 0° 231° (SW) 4,048 9.2 11.1°
Reaches altitude 10° 01:41:55 10° 220° (SW) 3,057 8.4 10.5°
Maximum altitude 01:48:13 29° 164° (SSE) 1,906 6.5 9.2°
Drops below altitude 10° 01:54:13 10° 106° (ESE) 2,899 6.9 8.0°
Sets 01:57:14 0° 96° (E) 3,807 7.4 7.4°
